| time (UTC) | temp F | wind direction | speed MPH | gust MPH | rain 1hr in | rain 24hr in | rain mn in | humidity % | barometer mb |
| 20260509141332 | 48 | 229 | 5.0 | 11.0 | 0.00 | 0.00 | 0.00 | 74 | 1002.5 |
| 20260509140822 | 48 | 207 | 7.0 | 11.0 | 0.00 | 0.00 | 0.00 | 74 | 1002.5 |
| 20260509140339 | 48 | 196 | 5.0 | 10.0 | 0.00 | 0.00 | 0.00 | 74 | 1002.3 |
| 20260509135829 | 48 | 202 | 7.0 | 11.0 | 0.00 | 0.00 | 0.00 | 73 | 1002.3 |
| 20260509135325 | 48 | 227 | 7.0 | 11.0 | 0.00 | 0.00 | 0.00 | 73 | 1002.4 |
| 20260509134832 | 48 | 257 | 7.0 | 14.0 | 0.00 | 0.00 | 0.00 | 73 | 1002.3 |
| 20260509134318 | 48 | 253 | 6.0 | 14.0 | 0.00 | 0.00 | 0.00 | 73 | 1002.1 |
| 20260509133833 | 48 | 243 | 8.0 | 16.0 | 0.00 | 0.00 | 0.00 | 74 | 1002.0 |
| 20260509133347 | 48 | 238 | 8.0 | 17.0 | 0.00 | 0.00 | 0.00 | 74 | 1002.0 |
| 20260509132851 | 48 | 242 | 8.0 | 19.0 | 0.00 | 0.00 | 0.00 | 74 | 1001.9 |
| 20260509132325 | 48 | 156 | 8.0 | 19.0 | 0.00 | 0.00 | 0.00 | 74 | 1001.8 |
| 20260509131815 | 48 | 236 | 9.0 | 17.0 | 0.00 | 0.00 | 0.00 | 74 | 1001.9 |
| 20260509131354 | 48 | 219 | 8.0 | 13.0 | 0.00 | 0.00 | 0.00 | 74 | 1001.8 |
| 20260509130827 | 48 | 279 | 6.0 | 19.0 | 0.00 | 0.00 | 0.00 | 73 | 1001.8 |
| 20260509130340 | 49 | 189 | 9.0 | 19.0 | 0.00 | 0.00 | 0.00 | 73 | 1001.8 |
| 20260509125826 | 49 | 211 | 11.0 | 18.0 | 0.00 | 0.00 | 0.00 | 74 | 1001.8 |
| 20260509125316 | 48 | 252 | 9.0 | 18.0 | 0.00 | 0.00 | 0.00 | 74 | 1001.8 |
| 20260509124820 | 48 | 221 | 8.0 | 16.0 | 0.00 | 0.00 | 0.00 | 74 | 1001.9 |
| 20260509124338 | 48 | 190 | 7.0 | 16.0 | 0.00 | 0.00 | 0.00 | 74 | 1001.9 |
| 20260509123829 | 48 | 234 | 10.0 | 20.0 | 0.00 | 0.00 | 0.00 | 74 | 1001.8 |
| 20260509123342 | 48 | 213 | 6.0 | 20.0 | 0.00 | 0.00 | 0.00 | 74 | 1001.7 |
| 20260509122830 | 49 | 253 | 9.0 | 18.0 | 0.00 | 0.00 | 0.00 | 74 | 1001.6 |
| 20260509122326 | 48 | 234 | 9.0 | 18.0 | 0.00 | 0.00 | 0.00 | 74 | 1001.6 |
| 20260509121823 | 48 | 261 | 10.0 | 18.0 | 0.00 | 0.00 | 0.00 | 74 | 1001.6 |
| 20260509121339 | 48 | 240 | 7.0 | 17.0 | 0.00 | 0.00 | 0.00 | 75 | 1001.7 |
| 20260509120831 | 48 | 242 | 9.0 | 20.0 | 0.00 | 0.00 | 0.00 | 74 | 1001.8 |
| 20260509120327 | 48 | 198 | 8.0 | 20.0 | 0.00 | 0.00 | 0.00 | 74 | 1001.6 |
| 20260509115819 | 48 | 246 | 10.0 | 18.0 | 0.00 | 0.00 | 0.00 | 74 | 1001.6 |
| 20260509115336 | 48 | 210 | 10.0 | 15.0 | 0.00 | 0.00 | 0.00 | 74 | 1001.6 |
| 20260509114829 | 48 | 210 | 10.0 | 15.0 | 0.00 | 0.00 | 0.00 | 74 | 1001.8 |
| 20260509114324 | 48 | 240 | 9.0 | 17.0 | 0.00 | 0.00 | 0.00 | 74 | 1001.6 |
| 20260509113832 | 48 | 243 | 10.0 | 15.0 | 0.00 | 0.00 | 0.00 | 73 | 1001.7 |
| 20260509113339 | 48 | 209 | 8.0 | 13.0 | 0.00 | 0.00 | 0.00 | 73 | 1001.6 |
| 20260509112824 | 48 | 234 | 9.0 | 17.0 | 0.00 | 0.00 | 0.00 | 73 | 1001.6 |
| 20260509112318 | 49 | 223 | 10.0 | 16.0 | 0.00 | 0.00 | 0.00 | 73 | 1001.7 |
| 20260509111854 | 49 | 231 | 8.0 | 16.0 | 0.00 | 0.00 | 0.00 | 73 | 1001.5 |
| 20260509111340 | 49 | 260 | 7.0 | 17.0 | 0.00 | 0.00 | 0.00 | 73 | 1001.5 |
| 20260509110835 | 49 | 244 | 5.0 | 17.0 | 0.00 | 0.00 | 0.00 | 73 | 1001.6 |
| 20260509110324 | 49 | 227 | 6.0 | 18.0 | 0.00 | 0.00 | 0.00 | 72 | 1001.5 |
| 20260509105838 | 49 | 243 | 6.0 | 18.0 | 0.00 | 0.00 | 0.00 | 72 | 1001.4 |
| 20260509105329 | 49 | 198 | 6.0 | 14.0 | 0.00 | 0.00 | 0.00 | 73 | 1001.5 |
| 20260509104845 | 49 | 257 | 4.0 | 11.0 | 0.00 | 0.00 | 0.00 | 72 | 1001.5 |
| 20260509104322 | 49 | 229 | 5.0 | 14.0 | 0.00 | 0.00 | 0.00 | 72 | 1001.5 |
| 20260509103816 | 49 | 153 | 6.0 | 14.0 | 0.00 | 0.00 | 0.00 | 72 | 1001.4 |
| 20260509103332 | 49 | 188 | 5.0 | 8.0 | 0.00 | 0.00 | 0.00 | 72 | 1001.5 |
| 20260509102828 | 49 | 171 | 4.0 | 14.0 | 0.00 | 0.00 | 0.00 | 72 | 1001.5 |
| 20260509102337 | 49 | 157 | 5.0 | 14.0 | 0.00 | 0.00 | 0.00 | 72 | 1001.5 |
| 20260509101847 | 49 | 182 | 4.0 | 12.0 | 0.00 | 0.00 | 0.00 | 72 | 1001.4 |
| 20260509101318 | 49 | 165 | 5.0 | 12.0 | 0.00 | 0.00 | 0.00 | 71 | 1001.4 |
| 20260509100854 | 50 | 240 | 6.0 | 14.0 | 0.00 | 0.00 | 0.00 | 71 | 1001.6 |
| 20260509100318 | 50 | 244 | 6.0 | 11.0 | 0.00 | 0.00 | 0.00 | 72 | 1001.5 |
| 20260509095833 | 50 | 190 | 4.0 | 14.0 | 0.00 | 0.00 | 0.00 | 72 | 1001.6 |
| 20260509095322 | 50 | 276 | 4.0 | 14.0 | 0.00 | 0.00 | 0.00 | 71 | 1001.5 |
| 20260509094836 | 50 | 310 | 5.0 | 11.0 | 0.00 | 0.00 | 0.00 | 71 | 1001.6 |
| 20260509094349 | 50 | 205 | 4.0 | 12.0 | 0.00 | 0.00 | 0.00 | 71 | 1001.6 |
| 20260509093819 | 50 | 183 | 5.0 | 12.0 | 0.00 | 0.00 | 0.00 | 72 | 1001.7 |
| 20260509093335 | 50 | 176 | 3.0 | 10.0 | 0.00 | 0.00 | 0.00 | 71 | 1001.7 |
| 20260509092842 | 50 | 211 | 3.0 | 11.0 | 0.00 | 0.00 | 0.00 | 71 | 1001.7 |
| 20260509092327 | 50 | 247 | 4.0 | 11.0 | 0.00 | 0.00 | 0.00 | 70 | 1001.8 |
| 20260509091817 | 51 | 307 | 4.0 | 14.0 | 0.00 | 0.00 | 0.00 | 70 | 1001.9 |
| 20260509091334 | 51 | 184 | 4.0 | 14.0 | 0.00 | 0.00 | 0.00 | 70 | 1001.9 |
| 20260509090825 | 51 | 269 | 5.0 | 12.0 | 0.00 | 0.00 | 0.00 | 72 | 1002.0 |
| 20260509090338 | 50 | 236 | 5.0 | 12.0 | 0.00 | 0.00 | 0.00 | 71 | 1001.9 |
| 20260509085834 | 50 | 212 | 4.0 | 13.0 | 0.00 | 0.00 | 0.00 | 70 | 1001.9 |
| 20260509085349 | 51 | 212 | 4.0 | 11.0 | 0.00 | 0.00 | 0.00 | 70 | 1002.0 |
| 20260509084814 | 51 | 214 | 6.0 | 11.0 | 0.00 | 0.00 | 0.00 | 70 | 1002.1 |
| 20260509084329 | 50 | 165 | 4.0 | 13.0 | 0.00 | 0.00 | 0.00 | 71 | 1002.1 |
| 20260509083844 | 50 | 192 | 3.0 | 8.0 | 0.00 | 0.00 | 0.00 | 70 | 1002.1 |
| 20260509083329 | 50 | 165 | 3.0 | 9.0 | 0.00 | 0.00 | 0.00 | 70 | 1002.3 |
| 20260509082825 | 50 | 233 | 3.0 | 11.0 | 0.00 | 0.00 | 0.00 | 69 | 1002.4 |
| 20260509082352 | 50 | 165 | 3.0 | 11.0 | 0.00 | 0.00 | 0.00 | 70 | 1002.5 |
| 20260509081859 | 50 | 160 | 3.0 | 9.0 | 0.00 | 0.00 | 0.00 | 70 | 1002.6 |
| 20260509081329 | 50 | 197 | 3.0 | 9.0 | 0.00 | 0.00 | 0.00 | 69 | 1002.7 |
| 20260509080818 | 50 | 194 | 3.0 | 10.0 | 0.00 | 0.00 | 0.00 | 69 | 1002.8 |
| 20260509080333 | 50 | 145 | 3.0 | 8.0 | 0.00 | 0.00 | 0.00 | 68 | 1002.9 |
| 20260509075825 | 50 | 163 | 3.0 | 9.0 | 0.00 | 0.00 | 0.00 | 68 | 1002.9 |
| 20260509075322 | 50 | 142 | 3.0 | 9.0 | 0.00 | 0.00 | 0.00 | 68 | 1003.1 |
| 20260509074815 | 50 | 223 | 4.0 | 9.0 | 0.00 | 0.00 | 0.00 | 68 | 1003.2 |
| 20260509074351 | 50 | 192 | 4.0 | 8.0 | 0.00 | 0.00 | 0.00 | 67 | 1003.1 |
| 20260509073902 | 51 | 180 | 4.0 | 10.0 | 0.00 | 0.00 | 0.00 | 68 | 1003.1 |
| 20260509073327 | 50 | 292 | 4.0 | 10.0 | 0.00 | 0.00 | 0.00 | 68 | 1003.3 |
| 20260509072825 | 50 | 155 | 4.0 | 10.0 | 0.00 | 0.00 | 0.00 | 68 | 1003.3 |
| 20260509072334 | 50 | 234 | 4.0 | 12.0 | 0.00 | 0.00 | 0.00 | 68 | 1003.3 |
| 20260509071827 | 51 | 213 | 4.0 | 12.0 | 0.00 | 0.00 | 0.00 | 67 | 1003.4 |
| 20260509071340 | 51 | 225 | 4.0 | 14.0 | 0.00 | 0.00 | 0.00 | 67 | 1003.5 |
| 20260509070849 | 51 | 184 | 4.0 | 14.0 | 0.00 | 0.00 | 0.00 | 67 | 1003.6 |
| 20260509070343 | 51 | 270 | 5.0 | 10.0 | 0.00 | 0.00 | 0.00 | 67 | 1003.8 |
| 20260509065828 | 51 | 163 | 3.0 | 11.0 | 0.00 | 0.00 | 0.00 | 67 | 1003.9 |
| 20260509065325 | 51 | 217 | 4.0 | 12.0 | 0.00 | 0.00 | 0.00 | 67 | 1003.9 |
| 20260509064820 | 52 | 221 | 5.0 | 12.0 | 0.00 | 0.00 | 0.00 | 66 | 1004.0 |
| 20260509064336 | 52 | 213 | 4.0 | 12.0 | 0.00 | 0.00 | 0.00 | 66 | 1004.1 |
| 20260509063828 | 52 | 226 | 4.0 | 10.0 | 0.00 | 0.00 | 0.00 | 65 | 1004.0 |
| 20260509063350 | 53 | 223 | 4.0 | 11.0 | 0.00 | 0.00 | 0.00 | 65 | 1004.0 |
| 20260509062820 | 53 | 166 | 3.0 | 9.0 | 0.00 | 0.00 | 0.00 | 64 | 1004.0 |
| 20260509062336 | 53 | 185 | 2.0 | 9.0 | 0.00 | 0.00 | 0.00 | 63 | 1004.1 |
| 20260509061851 | 53 | 151 | 2.0 | 10.0 | 0.00 | 0.00 | 0.00 | 62 | 1004.2 |
| 20260509061325 | 53 | 189 | 3.0 | 10.0 | 0.00 | 0.00 | 0.00 | 62 | 1004.2 |
| 20260509060827 | 53 | 138 | 3.0 | 9.0 | 0.00 | 0.00 | 0.00 | 61 | 1004.3 |
| 20260509060321 | 53 | 150 | 2.0 | 9.0 | 0.00 | 0.00 | 0.00 | 60 | 1004.3 |
| 20260509055849 | 53 | 303 | 2.0 | 9.0 | 0.00 | 0.00 | 0.00 | 60 | 1004.4 |
| 20260509055320 | 54 | 190 | 3.0 | 9.0 | 0.00 | 0.00 | 0.00 | 59 | 1004.5 |
| 20260509054842 | 54 | 155 | 2.0 | 5.0 | 0.00 | 0.00 | 0.00 | 59 | 1004.4 |
| 20260509054347 | 54 | 149 | 1.0 | 5.0 | 0.00 | 0.00 | 0.00 | 58 | 1004.4 |
| 20260509053815 | 54 | 166 | 2.0 | 6.0 | 0.00 | 0.00 | 0.00 | 57 | 1004.6 |
| 20260509053328 | 54 | 141 | 2.0 | 6.0 | 0.00 | 0.00 | 0.00 | 56 | 1004.7 |
| 20260509052842 | 55 | 84 | 2.0 | 5.0 | 0.00 | 0.00 | 0.00 | 56 | 1004.7 |
| 20260509052325 | 55 | 172 | 2.0 | 5.0 | 0.00 | 0.00 | 0.00 | 56 | 1004.6 |
| 20260509051835 | 55 | 142 | 2.0 | 6.0 | 0.00 | 0.00 | 0.00 | 56 | 1004.7 |
| 20260509051343 | 55 | 168 | 2.0 | 6.0 | 0.00 | 0.00 | 0.00 | 55 | 1004.6 |
| 20260509050838 | 55 | 144 | 2.0 | 5.0 | 0.00 | 0.00 | 0.00 | 55 | 1004.7 |
| 20260509050327 | 56 | 184 | 2.0 | 7.0 | 0.00 | 0.00 | 0.00 | 55 | 1004.7 |
| 20260509045835 | 56 | 153 | 2.0 | 7.0 | 0.00 | 0.00 | 0.00 | 55 | 1004.7 |
| 20260509045343 | 56 | 42 | 2.0 | 7.0 | 0.00 | 0.00 | 0.00 | 54 | 1004.8 |
| 20260509044828 | 56 | 144 | 3.0 | 7.0 | 0.00 | 0.00 | 0.00 | 53 | 1004.7 |
| 20260509044325 | 56 | 186 | 2.0 | 7.0 | 0.00 | 0.00 | 0.00 | 53 | 1004.8 |
| 20260509043819 | 56 | 133 | 2.0 | 6.0 | 0.00 | 0.00 | 0.00 | 52 | 1004.8 |
| 20260509043348 | 56 | 184 | 2.0 | 5.0 | 0.00 | 0.00 | 0.00 | 52 | 1004.8 |
| 20260509042836 | 56 | 135 | 2.0 | 4.0 | 0.00 | 0.00 | 0.00 | 52 | 1004.8 |
| 20260509042328 | 56 | 69 | 2.0 | 11.0 | 0.00 | 0.00 | 0.00 | 52 | 1004.7 |
| 20260509041833 | 56 | 135 | 3.0 | 12.0 | 0.00 | 0.00 | 0.00 | 52 | 1004.9 |
| 20260509041347 | 56 | 191 | 2.0 | 8.0 | 0.00 | 0.00 | 0.00 | 51 | 1004.9 |
| 20260509040856 | 56 | 119 | 2.0 | 8.0 | 0.00 | 0.00 | 0.00 | 50 | 1004.9 |
| 20260509040340 | 56 | 157 | 2.0 | 5.0 | 0.00 | 0.00 | 0.00 | 50 | 1005.1 |
| 20260509035842 | 56 | 329 | 2.0 | 5.0 | 0.00 | 0.00 | 0.00 | 49 | 1005.2 |
| 20260509035337 | 56 | 151 | 2.0 | 5.0 | 0.00 | 0.00 | 0.00 | 48 | 1005.2 |
| 20260509034825 | 56 | 155 | 2.0 | 8.0 | 0.00 | 0.00 | 0.00 | 46 | 1005.2 |
| 20260509034318 | 56 | 225 | 3.0 | 8.0 | 0.00 | 0.00 | 0.00 | 45 | 1005.2 |
| 20260509033834 | 56 | 138 | 2.0 | 4.0 | 0.00 | 0.00 | 0.00 | 45 | 1005.4 |
| 20260509033326 | 56 | 123 | 2.0 | 4.0 | 0.00 | 0.00 | 0.00 | 44 | 1005.4 |
| 20260509032838 | 56 | 155 | 1.0 | 5.0 | 0.00 | 0.00 | 0.00 | 44 | 1005.6 |
| 20260509032352 | 56 | 172 | 2.0 | 5.0 | 0.00 | 0.00 | 0.00 | 45 | 1005.6 |
| 20260509031827 | 56 | 310 | 2.0 | 6.0 | 0.00 | 0.00 | 0.00 | 44 | 1005.7 |
| 20260509031323 | 55 | 169 | 1.0 | 4.0 | 0.00 | 0.00 | 0.00 | 41 | 1005.6 |
| 20260509030817 | 55 | 164 | 2.0 | 4.0 | 0.00 | 0.00 | 0.00 | 41 | 1005.8 |
| 20260509030348 | 55 | 351 | 2.0 | 8.0 | 0.00 | 0.00 | 0.00 | 41 | 1005.8 |
| 20260509025822 | 55 | 169 | 3.0 | 8.0 | 0.00 | 0.00 | 0.00 | 39 | 1006.0 |
| 20260509025318 | 55 | 5 | 2.0 | 5.0 | 0.00 | 0.00 | 0.00 | 39 | 1005.9 |
| 20260509024853 | 55 | 142 | 2.0 | 9.0 | 0.00 | 0.00 | 0.00 | 38 | 1006.1 |
| 20260509024329 | 55 | 156 | 2.0 | 9.0 | 0.00 | 0.00 | 0.00 | 37 | 1005.9 |
| 20260509023824 | 55 | 134 | 2.0 | 4.0 | 0.00 | 0.00 | 0.00 | 38 | 1006.1 |
| 20260509023321 | 55 | 263 | 1.0 | 3.0 | 0.00 | 0.00 | 0.00 | 37 | 1006.1 |
| 20260509022836 | 55 | 144 | 1.0 | 4.0 | 0.00 | 0.00 | 0.00 | 37 | 1006.1 |
| 20260509022330 | 55 | 139 | 1.0 | 5.0 | 0.00 | 0.00 | 0.00 | 38 | 1006.2 |
| 20260509021826 | 55 | 136 | 2.0 | 5.0 | 0.00 | 0.00 | 0.00 | 37 | 1006.2 |
| 20260509021331 | 55 | 157 | 2.0 | 4.0 | 0.00 | 0.00 | 0.00 | 37 | 1006.1 |
| 20260509020821 | 55 | 129 | 1.0 | 5.0 | 0.00 | 0.00 | 0.00 | 34 | 1006.1 |
| 20260509020354 | 55 | 36 | 2.0 | 5.0 | 0.00 | 0.00 | 0.00 | 34 | 1006.2 |
| 20260509015824 | 55 | 86 | 2.0 | 6.0 | 0.00 | 0.00 | 0.00 | 33 | 1006.1 |
| 20260509015350 | 55 | 178 | 2.0 | 6.0 | 0.00 | 0.00 | 0.00 | 30 | 1006.2 |
| 20260509014904 | 55 | 137 | 1.0 | 5.0 | 0.00 | 0.00 | 0.00 | 30 | 1006.3 |
| 20260509014329 | 55 | 141 | 2.0 | 5.0 | 0.00 | 0.00 | 0.00 | 27 | 1006.2 |
| 20260509013855 | 55 | 151 | 1.0 | 4.0 | 0.00 | 0.00 | 0.00 | 26 | 1006.2 |
| 20260509013319 | 55 | 157 | 1.0 | 5.0 | 0.00 | 0.00 | 0.00 | 27 | 1006.2 |
| 20260509012833 | 55 | 20 | 2.0 | 5.0 | 0.00 | 0.00 | 0.00 | 26 | 1006.2 |
| 20260509012350 | 56 | 70 | 1.0 | 3.0 | 0.00 | 0.00 | 0.00 | 26 | 1006.2 |
| 20260509011825 | 56 | 22 | 1.0 | 3.0 | 0.00 | 0.00 | 0.00 | 25 | 1006.1 |
| 20260509011323 | 56 | 45 | 1.0 | 3.0 | 0.00 | 0.00 | 0.00 | 25 | 1006.0 |
| 20260509010818 | 56 | 60 | 1.0 | 3.0 | 0.00 | 0.00 | 0.00 | 25 | 1006.0 |
| 20260509010333 | 56 | 44 | 2.0 | 3.0 | 0.00 | 0.00 | 0.00 | 25 | 1006.0 |
| 20260509005825 | 56 | 67 | 2.0 | 4.0 | 0.00 | 0.00 | 0.00 | 25 | 1006.1 |
| 20260509005322 | 56 | 92 | 2.0 | 4.0 | 0.00 | 0.00 | 0.00 | 25 | 1006.1 |
| 20260509004856 | 57 | 74 | 1.0 | 4.0 | 0.00 | 0.00 | 0.00 | 26 | 1006.0 |
| 20260509004329 | 57 | 5 | 1.0 | 4.0 | 0.00 | 0.00 | 0.00 | 25 | 1006.0 |
| 20260509003837 | 57 | 257 | 2.0 | 4.0 | 0.00 | 0.00 | 0.00 | 24 | 1006.1 |
| 20260509003332 | 58 | 37 | 1.0 | 3.0 | 0.00 | 0.00 | 0.00 | 24 | 1006.2 |
| 20260509002829 | 58 | 73 | 1.0 | 4.0 | 0.00 | 0.00 | 0.00 | 25 | 1006.2 |
| 20260509002344 | 58 | 61 | 1.0 | 4.0 | 0.00 | 0.00 | 0.00 | 26 | 1006.3 |
| 20260509001830 | 58 | 65 | 1.0 | 5.0 | 0.00 | 0.00 | 0.00 | 27 | 1006.4 |
| 20260509001326 | 58 | 76 | 1.0 | 5.0 | 0.00 | 0.00 | 0.00 | 26 | 1006.4 |
| 20260509000820 | 58 | 120 | 1.0 | 5.0 | 0.00 | 0.00 | 0.00 | 26 | 1006.5 |
| 20260509000318 | 59 | 73 | 1.0 | 5.0 | 0.00 | 0.00 | 0.00 | 27 | 1006.5 |
| 20260508235832 | 59 | 134 | 2.0 | 5.0 | 0.00 | 0.00 | 0.00 | 25 | 1006.6 |
| 20260508235353 | 59 | 71 | 1.0 | 5.0 | 0.00 | 0.00 | 0.00 | 29 | 1006.6 |
| 20260508234820 | 59 | 247 | 2.0 | 7.0 | 0.00 | 0.00 | 0.00 | 26 | 1006.7 |
| 20260508234336 | 59 | 221 | 2.0 | 7.0 | 0.00 | 0.00 | 0.00 | 25 | 1006.7 |
| 20260508233849 | 58 | 200 | 1.0 | 4.0 | 0.00 | 0.00 | 0.00 | 28 | 1006.8 |
| 20260508233322 | 58 | 173 | 1.0 | 4.0 | 0.00 | 0.00 | 0.00 | 28 | 1006.8 |
| 20260508232838 | 58 | 163 | 1.0 | 6.0 | 0.00 | 0.00 | 0.00 | 27 | 1006.8 |
| 20260508232333 | 57 | 156 | 2.0 | 7.0 | 0.00 | 0.00 | 0.00 | 28 | 1007.0 |
| 20260508231826 | 57 | 167 | 2.0 | 7.0 | 0.00 | 0.00 | 0.00 | 30 | 1007.0 |
| 20260508231333 | 57 | 229 | 2.0 | 9.0 | 0.00 | 0.00 | 0.00 | 29 | 1007.0 |
| 20260508230826 | 57 | 234 | 2.0 | 9.0 | 0.00 | 0.00 | 0.00 | 30 | 1007.0 |
| 20260508230320 | 57 | 157 | 2.0 | 7.0 | 0.00 | 0.00 | 0.00 | 33 | 1007.1 |
| 20260508225833 | 57 | 138 | 2.0 | 4.0 | 0.00 | 0.00 | 0.00 | 35 | 1007.1 |
| 20260508225325 | 57 | 198 | 2.0 | 6.0 | 0.00 | 0.00 | 0.00 | 37 | 1007.2 |
| 20260508224819 | 56 | 190 | 2.0 | 8.0 | 0.00 | 0.00 | 0.00 | 40 | 1007.2 |
| 20260508224337 | 56 | 154 | 1.0 | 10.0 | 0.00 | 0.00 | 0.00 | 41 | 1007.3 |
| 20260508223828 | 56 | 191 | 5.0 | 10.0 | 0.00 | 0.00 | 0.00 | 44 | 1007.4 |
| 20260508223325 | 57 | 165 | 3.0 | 5.0 | 0.00 | 0.00 | 0.00 | 41 | 1007.6 |
| 20260508222830 | 57 | 202 | 2.0 | 5.0 | 0.00 | 0.00 | 0.00 | 43 | 1007.7 |
| 20260508222340 | 57 | 192 | 2.0 | 6.0 | 0.00 | 0.00 | 0.00 | 44 | 1007.7 |
| 20260508221849 | 57 | 105 | 2.0 | 6.0 | 0.00 | 0.00 | 0.00 | 46 | 1007.7 |
| 20260508221335 | 57 | 204 | 3.0 | 6.0 | 0.00 | 0.00 | 0.00 | 46 | 1007.8 |
| 20260508220828 | 56 | 198 | 2.0 | 6.0 | 0.00 | 0.00 | 0.00 | 46 | 1007.8 |
| 20260508220333 | 56 | 152 | 2.0 | 6.0 | 0.00 | 0.00 | 0.00 | 47 | 1007.8 |
| 20260508215850 | 57 | 200 | 3.0 | 8.0 | 0.00 | 0.00 | 0.00 | 47 | 1007.9 |
| 20260508215324 | 56 | 192 | 2.0 | 8.0 | 0.00 | 0.00 | 0.00 | 49 | 1007.9 |
| 20260508214821 | 57 | 211 | 3.0 | 7.0 | 0.00 | 0.00 | 0.00 | 46 | 1007.9 |
| 20260508214352 | 57 | 204 | 2.0 | 7.0 | 0.00 | 0.00 | 0.00 | 47 | 1007.9 |
| 20260508213838 | 57 | 225 | 3.0 | 7.0 | 0.00 | 0.00 | 0.00 | 46 | 1007.9 |
| 20260508213326 | 57 | 174 | 2.0 | 6.0 | 0.00 | 0.00 | 0.00 | 47 | 1007.9 |
| 20260508212840 | 56 | 159 | 3.0 | 8.0 | 0.00 | 0.00 | 0.00 | 47 | 1008.0 |
| 20260508212323 | 56 | 200 | 4.0 | 8.0 | 0.00 | 0.00 | 0.00 | 50 | 1008.1 |
| 20260508211816 | 55 | 142 | 3.0 | 9.0 | 0.00 | 0.00 | 0.00 | 53 | 1008.2 |
| 20260508211334 | 55 | 185 | 4.0 | 9.0 | 0.00 | 0.00 | 0.00 | 53 | 1008.2 |
| 20260508210828 | 54 | 222 | 2.0 | 8.0 | 0.00 | 0.00 | 0.00 | 55 | 1008.2 |
| 20260508210323 | 54 | 227 | 2.0 | 9.0 | 0.00 | 0.00 | 0.00 | 57 | 1008.3 |
| 20260508205816 | 54 | 194 | 3.0 | 9.0 | 0.00 | 0.00 | 0.00 | 56 | 1008.3 |
| 20260508205334 | 54 | 217 | 3.0 | 7.0 | 0.00 | 0.00 | 0.00 | 56 | 1008.4 |
| 20260508204827 | 54 | 202 | 3.0 | 7.0 | 0.00 | 0.00 | 0.00 | 56 | 1008.6 |
| 20260508204341 | 55 | 163 | 3.0 | 7.0 | 0.00 | 0.00 | 0.00 | 56 | 1008.7 |
| 20260508203832 | 55 | 193 | 2.0 | 8.0 | 0.00 | 0.00 | 0.00 | 57 | 1008.7 |
| 20260508203327 | 55 | 211 | 4.0 | 8.0 | 0.00 | 0.00 | 0.00 | 57 | 1008.7 |
| 20260508202818 | 54 | 201 | 2.0 | 7.0 | 0.00 | 0.00 | 0.00 | 58 | 1008.8 |
| 20260508202334 | 55 | 213 | 3.0 | 7.0 | 0.00 | 0.00 | 0.00 | 56 | 1008.9 |
| 20260508201833 | 55 | 196 | 3.0 | 7.0 | 0.00 | 0.00 | 0.00 | 58 | 1008.9 |
| 20260508201343 | 54 | 215 | 2.0 | 7.0 | 0.00 | 0.00 | 0.00 | 58 | 1009.0 |
| 20260508200816 | 54 | 185 | 4.0 | 10.0 | 0.00 | 0.00 | 0.00 | 59 | 1009.1 |
| 20260508200328 | 54 | 298 | 5.0 | 10.0 | 0.00 | 0.00 | 0.00 | 59 | 1009.1 |
| 20260508195822 | 54 | 205 | 4.0 | 11.0 | 0.00 | 0.00 | 0.00 | 60 | 1009.1 |
| 20260508195338 | 54 | 263 | 5.0 | 11.0 | 0.00 | 0.00 | 0.00 | 61 | 1009.2 |
| 20260508194845 | 55 | 222 | 4.0 | 10.0 | 0.00 | 0.00 | 0.00 | 60 | 1009.2 |
| 20260508194316 | 54 | 197 | 3.0 | 7.0 | 0.00 | 0.00 | 0.00 | 60 | 1009.3 |
| 20260508193830 | 54 | 207 | 3.0 | 7.0 | 0.00 | 0.00 | 0.00 | 61 | 1009.3 |
| 20260508193326 | 54 | 204 | 4.0 | 9.0 | 0.00 | 0.00 | 0.00 | 61 | 1009.5 |
| 20260508192821 | 53 | 195 | 4.0 | 9.0 | 0.00 | 0.00 | 0.00 | 61 | 1009.6 |
| 20260508192356 | 54 | 197 | 3.0 | 9.0 | 0.00 | 0.00 | 0.00 | 61 | 1009.6 |
| 20260508191825 | 54 | 194 | 2.0 | 9.0 | 0.00 | 0.00 | 0.00 | 62 | 1009.6 |
| 20260508191341 | 54 | 205 | 4.0 | 7.0 | 0.00 | 0.00 | 0.00 | 61 | 1009.7 |
| 20260508190816 | 54 | 224 | 3.0 | 9.0 | 0.00 | 0.00 | 0.00 | 61 | 1009.7 |
| 20260508190329 | 54 | 219 | 2.0 | 10.0 | 0.00 | 0.00 | 0.00 | 61 | 1009.7 |
| 20260508185819 | 53 | 110 | 2.0 | 10.0 | 0.00 | 0.00 | 0.00 | 62 | 1009.7 |
| 20260508185333 | 54 | 211 | 3.0 | 9.0 | 0.00 | 0.00 | 0.00 | 61 | 1009.8 |
| 20260508184840 | 54 | 209 | 4.0 | 9.0 | 0.00 | 0.00 | 0.00 | 61 | 1009.8 |
| 20260508184326 | 53 | 203 | 4.0 | 9.0 | 0.00 | 0.00 | 0.00 | 61 | 1009.9 |
| 20260508183823 | 53 | 225 | 5.0 | 11.0 | 0.00 | 0.00 | 0.00 | 60 | 1010.0 |
| 20260508183336 | 53 | 229 | 4.0 | 11.0 | 0.00 | 0.00 | 0.00 | 61 | 1010.1 |
| 20260508182821 | 53 | 242 | 5.0 | 8.0 | 0.00 | 0.00 | 0.00 | 61 | 1010.0 |
| 20260508182314 | 53 | 218 | 4.0 | 9.0 | 0.00 | 0.00 | 0.00 | 61 | 1010.1 |
| 20260508181827 | 52 | 194 | 4.0 | 9.0 | 0.00 | 0.00 | 0.00 | 61 | 1010.2 |
| 20260508181341 | 53 | 217 | 5.0 | 9.0 | 0.00 | 0.00 | 0.00 | 61 | 1010.3 |
| 20260508180815 | 52 | 241 | 5.0 | 10.0 | 0.00 | 0.00 | 0.00 | 62 | 1010.3 |
| 20260508180332 | 52 | 218 | 4.0 | 10.0 | 0.00 | 0.00 | 0.00 | 61 | 1010.4 |
| 20260508175825 | 52 | 242 | 4.0 | 10.0 | 0.00 | 0.00 | 0.00 | 62 | 1010.5 |
| 20260508175320 | 53 | 249 | 4.0 | 10.0 | 0.00 | 0.00 | 0.00 | 61 | 1010.5 |
| 20260508174855 | 53 | 200 | 4.0 | 8.0 | 0.00 | 0.00 | 0.00 | 61 | 1010.6 |
| 20260508174341 | 53 | 212 | 2.0 | 6.0 | 0.00 | 0.00 | 0.00 | 62 | 1010.6 |
| 20260508173829 | 52 | 215 | 2.0 | 9.0 | 0.00 | 0.00 | 0.00 | 62 | 1010.7 |
| 20260508173318 | 52 | 188 | 3.0 | 9.0 | 0.00 | 0.00 | 0.00 | 62 | 1010.7 |
| 20260508172832 | 52 | 230 | 3.0 | 7.0 | 0.00 | 0.00 | 0.00 | 62 | 1010.8 |
| 20260508172319 | 52 | 237 | 3.0 | 7.0 | 0.00 | 0.00 | 0.00 | 62 | 1010.9 |
| 20260508171832 | 52 | 197 | 3.0 | 7.0 | 0.00 | 0.00 | 0.00 | 61 | 1011.0 |
| 20260508171330 | 52 | 163 | 2.0 | 9.0 | 0.00 | 0.00 | 0.00 | 62 | 1011.1 |
| 20260508170833 | 52 | 232 | 4.0 | 9.0 | 0.00 | 0.00 | 0.00 | 62 | 1011.1 |
| 20260508170328 | 52 | 194 | 3.0 | 7.0 | 0.00 | 0.00 | 0.00 | 62 | 1011.3 |
| 20260508165836 | 52 | 209 | 4.0 | 8.0 | 0.00 | 0.00 | 0.00 | 62 | 1011.3 |
| 20260508165323 | 52 | 166 | 4.0 | 8.0 | 0.00 | 0.00 | 0.00 | 62 | 1011.3 |
| 20260508164833 | 52 | 214 | 3.0 | 9.0 | 0.00 | 0.00 | 0.00 | 63 | 1011.4 |
| 20260508164326 | 52 | 144 | 3.0 | 7.0 | 0.00 | 0.00 | 0.00 | 62 | 1011.4 |
| 20260508163826 | 52 | 234 | 3.0 | 7.0 | 0.00 | 0.00 | 0.00 | 62 | 1011.6 |
| 20260508163339 | 52 | 194 | 2.0 | 5.0 | 0.00 | 0.00 | 0.00 | 62 | 1011.5 |
| 20260508162825 | 52 | 190 | 2.0 | 5.0 | 0.00 | 0.00 | 0.00 | 63 | 1011.5 |
| 20260508162350 | 52 | 159 | 2.0 | 6.0 | 0.00 | 0.00 | 0.00 | 64 | 1011.5 |
| 20260508161826 | 51 | 219 | 2.0 | 9.0 | 0.00 | 0.00 | 0.00 | 63 | 1011.6 |
| 20260508161320 | 51 | 174 | 3.0 | 9.0 | 0.00 | 0.00 | 0.00 | 64 | 1011.6 |
| 20260508160834 | 51 | 190 | 2.0 | 6.0 | 0.00 | 0.00 | 0.00 | 64 | 1011.5 |
| 20260508160322 | 50 | 156 | 2.0 | 7.0 | 0.00 | 0.00 | 0.00 | 64 | 1011.4 |
| 20260508155839 | 50 | 201 | 3.0 | 7.0 | 0.00 | 0.00 | 0.00 | 64 | 1011.6 |
| 20260508155342 | 50 | 195 | 2.0 | 9.0 | 0.00 | 0.00 | 0.00 | 64 | 1011.4 |
| 20260508154855 | 50 | 248 | 3.0 | 8.0 | 0.00 | 0.00 | 0.00 | 64 | 1011.6 |
| 20260508154322 | 50 | 197 | 4.0 | 8.0 | 0.00 | 0.00 | 0.00 | 64 | 1011.7 |
| 20260508153818 | 50 | 187 | 4.0 | 9.0 | 0.00 | 0.00 | 0.00 | 64 | 1011.6 |
| 20260508153353 | 50 | 145 | 3.0 | 9.0 | 0.00 | 0.00 | 0.00 | 64 | 1011.7 |
| 20260508152828 | 49 | 243 | 2.0 | 7.0 | 0.00 | 0.00 | 0.00 | 64 | 1011.8 |
| 20260508152323 | 49 | 196 | 3.0 | 7.0 | 0.00 | 0.00 | 0.00 | 64 | 1011.7 |
| 20260508151832 | 49 | 209 | 3.0 | 7.0 | 0.00 | 0.00 | 0.00 | 64 | 1011.8 |
| 20260508151319 | 49 | 168 | 3.0 | 7.0 | 0.00 | 0.00 | 0.00 | 64 | 1011.8 |
| 20260508150834 | 49 | 242 | 3.0 | 7.0 | 0.00 | 0.00 | 0.00 | 65 | 1011.8 |
| 20260508150328 | 49 | 259 | 2.0 | 10.0 | 0.00 | 0.00 | 0.00 | 66 | 1011.8 |
| 20260508145822 | 48 | 175 | 3.0 | 10.0 | 0.00 | 0.00 | 0.00 | 64 | 1011.7 |
| 20260508145314 | 49 | 232 | 4.0 | 9.0 | 0.00 | 0.00 | 0.00 | 63 | 1011.8 |
| 20260508144849 | 49 | 205 | 3.0 | 7.0 | 0.00 | 0.00 | 0.00 | 62 | 1011.8 |
| 20260508144326 | 49 | 210 | 3.0 | 7.0 | 0.00 | 0.00 | 0.00 | 63 | 1011.8 |
| 20260508143840 | 49 | 197 | 3.0 | 8.0 | 0.00 | 0.00 | 0.00 | 63 | 1011.8 |
| 20260508143335 | 49 | 209 | 5.0 | 8.0 | 0.00 | 0.00 | 0.00 | 62 | 1011.7 |
| 20260508142825 | 49 | 202 | 3.0 | 9.0 | 0.00 | 0.00 | 0.00 | 62 | 1011.8 |
| 20260508142350 | 49 | 185 | 4.0 | 9.0 | 0.00 | 0.00 | 0.00 | 62 | 1011.7 |
| 20260508141826 | 49 | 194 | 2.0 | 8.0 | 0.00 | 0.00 | 0.00 | 62 | 1011.7 |